World > North America > United States > New Jersey

Somerdale, New Jersey Regional Weather

Lat: 39.84N, Lon: 75.02W
Wx Zone: NJZ018
Feedback

Somerdale, NJ Regional Weather

Expires:201909222200;;195140
ASUS41 KPHI 222112
RWRPHI

REGIONAL WEATHER ROUNDUP
NATIONAL WEATHER SERVICE MOUNT HOLLY NJ
500 PM EDT SUN SEP 22 2019

NOTE:  "FAIR" INDICATES FEW OR NO CLOUDS BELOW 12,000 FEET WITH NO
SIGNIFICANT WEATHER AND/OR OBSTRUCTIONS TO VISIBILITY.

 * = STATION DOES NOT REPORT PRECIPITATION (E.G. RAIN, SNOW, ETC.) 
        OR FOG.


NJZ015>026-222200-
SOUTHERN NEW JERSEY
  
CITY           SKY/WX    TMP DP  RH WIND       PRES   REMARKS
POMONA         FAIR      81  67  62 S9        30.08F                  
WILDWOOD*      FAIR      80  68  66 S13       30.09S                  
MILLVILLE      FAIR      83  65  54 S7        30.07F                  
WRIGHTSTOWN    MOSUNNY   86  66  51 SW8       30.05F                  
MOUNT HOLLY    FAIR      87  64  46 VRB5      30.04F                  
TRENTON        FAIR      86  65  49 S9        30.04F                  

$$

SKY/WX - Weather  TMP - Temperature  DP - Dew Point  RH - Relative Humidity
WIND - Wind Direction/Speed PRES - Barometric Pressure VSB - Visibility
WCI - Wind Chill Index E13G22 Wind - East Wind 13 mph/Gusts of 22 mph